Glens Falls, NY

10:19 PM EDT on September 25, 2017 (GMT -0400)
Bennett Memorial

Weather History for KGFL - October, 2013

Change the Weather History Date:

Friday, October 18, 2013

  Actual Average Record
Temperature  
Mean Temperature 51 °F 46 °F  
Max Temperature 62 °F 57 °F 84 °F (2016)
Min Temperature 39 °F 34 °F 18 °F (1978)
Degree Days  
Heating Degree Days 14 19  
Month to date heating degree days 178 292  
Since 1 July heating degree days 463 577  
Cooling Degree Days 0 0  
Month to date cooling degree days 0 0  
Year to date cooling degree days 537 351  
Growing Degree Days 3 (Base 50)    
Moisture  
Dew Point 46 °F    
Average Humidity 70    
Maximum Humidity 100    
Minimum Humidity 39    
Precipitation  
Precipitation 0.10 in 0.11 in 2.11 in (1975)
Month to date precipitation 1.71 2.07  
Year to date precipitation 29.41 31.26  
Sea Level Pressure  
Sea Level Pressure 29.76 in    
Wind  
Wind Speed 7 mph (West)    
Max Wind Speed 18 mph    
Max Gust Speed 26 mph    
Visibility 9 miles    
Events Rain    
T = Trace of Precipitation, MM = Missing Value Source: NWS Daily Summary

Daily Weather History Graph

Daily Weather History Graph

Search for Another Location

Airport or City:

Trip Planner

Search our weather history database for the weather conditions in past years. The results will help you decide how hot, cold, wet, or windy it might be!

Date:

Astronomy

Oct. 18, 2013 Rise Set
Actual Time 7:12 AM EDT 6:06 PM EDT
Civil Twilight 6:43 AM EDT 6:35 PM EDT
Nautical Twilight 6:10 AM EDT 7:08 PM EDT
Astronomical Twilight 5:37 AM EDT 7:41 PM EDT
Moon 5:53 PM EDT (10/18) 6:44 AM EDT (10/18)
Length of Visible Light 11h 51m
Length of Day
10h 53m
Full, 100% of the Moon is Illuminated
Oct 18
Full
Oct 18
Full
Oct 26
Last Quarter
Nov 3
New
Nov 10
First Quarter

Hourly Weather History & Observations

Time (EDT) Temp. Dew Point Humidity Pressure Visibility Wind Dir Wind Speed Gust Speed Precip Events Conditions
12:05 AM 53.6 °F 53.6 °F 100% 29.63 in 1.8 mi NNE 5.8 mph - 0.13 in Rain Heavy Rain
12:13 AM 53.6 °F 53.6 °F 100% 29.63 in 2.0 mi North 5.8 mph - 0.20 in Rain Heavy Rain
12:37 AM 53.6 °F 53.6 °F 100% 29.62 in 4.0 mi North 5.8 mph - 0.33 in Rain Rain
12:53 AM 54.0 °F 53.1 °F 97% 29.62 in 6.0 mi NNW 6.9 mph - 0.36 in Rain Light Rain
1:00 AM 53.6 °F 53.6 °F 100% 29.62 in 5.0 mi NW 10.4 mph - 0.03 in Rain Rain
1:53 AM 54.0 °F 52.0 °F 93% 29.62 in 10.0 mi NNW 5.8 mph - 0.12 in Rain Light Rain
2:53 AM 55.0 °F 52.0 °F 89% 29.63 in 10.0 mi NW 8.1 mph - 0.00 in   Overcast
3:23 AM 53.6 °F 51.8 °F 94% 29.64 in 10.0 mi North 4.6 mph - N/A   Mostly Cloudy
3:53 AM 51.1 °F 48.9 °F 92% 29.65 in 9.0 mi Calm Calm - N/A   Partly Cloudy
4:53 AM 53.1 °F 52.0 °F 96% 29.69 in 10.0 mi SSW 5.8 mph - N/A   Overcast
5:53 AM 53.1 °F 52.0 °F 96% 29.70 in 10.0 mi Calm Calm - 0.00 in   Overcast
6:53 AM 52.0 °F 48.9 °F 89% 29.71 in 10.0 mi SW 3.5 mph - N/A   Scattered Clouds
7:53 AM 54.0 °F 48.0 °F 80% 29.73 in 10.0 mi WSW 6.9 mph - N/A   Clear
8:53 AM 55.9 °F 45.0 °F 67% 29.76 in 10.0 mi WSW 11.5 mph 19.6 mph N/A   Clear
9:53 AM 57.9 °F 45.0 °F 62% 29.76 in 10.0 mi WSW 8.1 mph 18.4 mph N/A   Clear
10:53 AM 60.1 °F 46.0 °F 60% 29.78 in 10.0 mi West 11.5 mph 23.0 mph N/A   Clear
11:53 AM 61.0 °F 45.0 °F 56% 29.80 in 10.0 mi West 13.8 mph 23.0 mph N/A   Scattered Clouds
12:53 PM 57.9 °F 45.0 °F 62% 29.81 in 10.0 mi West 11.5 mph 19.6 mph N/A   Overcast
1:53 PM 57.9 °F 45.0 °F 62% 29.81 in 10.0 mi WSW 8.1 mph - N/A   Overcast
2:53 PM 59.0 °F 45.0 °F 60% 29.81 in 10.0 mi WSW 9.2 mph 17.3 mph N/A   Overcast
3:53 PM 61.0 °F 44.1 °F 54% 29.82 in 10.0 mi WNW 8.1 mph - N/A   Mostly Cloudy
4:53 PM 61.0 °F 36.0 °F 39% 29.82 in 10.0 mi WSW 6.9 mph 17.3 mph N/A   Clear
5:53 PM 57.9 °F 35.1 °F 42% 29.84 in 10.0 mi WSW 11.5 mph 19.6 mph N/A   Clear
6:53 PM 55.0 °F 36.0 °F 49% 29.88 in 10.0 mi WSW 5.8 mph - N/A   Clear
7:53 PM 53.1 °F 35.1 °F 50% 29.89 in 10.0 mi SW 4.6 mph - N/A   Clear
8:53 PM 48.0 °F 37.0 °F 66% 29.91 in 10.0 mi SW 6.9 mph - N/A   Clear
9:53 PM 48.0 °F 37.9 °F 68% 29.93 in 10.0 mi SSW 4.6 mph - N/A   Clear
10:53 PM 45.0 °F 37.9 °F 76% 29.93 in 10.0 mi Calm Calm - N/A   Clear
11:53 PM 43.0 °F 37.0 °F 80% 29.94 in 10.0 mi Calm Calm - N/A   Clear